This is the latest recevied weather packets stored in our database for station/object PP5FMM-13. If no packets are shown the sender has not sent any weather packets the latest 10 day(s).
| Time | Temp. | Humidity | Pressure | Rain* | Wind** | Luminosity | Snow |
|---|---|---|---|---|---|---|---|
| 1777824032 | 26.67° C | 47% | 1022.7 hPa | - | - | - | - |
| 1777823732 | 26.67° C | 47% | 1022.8 hPa | - | - | - | - |
| 1777823432 | 26.67° C | 49% | 1022.8 hPa | - | - | - | - |
| 1777823132 | 26.11° C | 48% | 1022.9 hPa | - | - | - | - |
| 1777822832 | 26.11° C | 48% | 1023 hPa | - | - | - | - |
| 1777822532 | 26.11° C | 47% | 1023.1 hPa | - | - | - | - |
| 1777822232 | 26.11° C | 49% | 1023.2 hPa | - | - | - | - |
| 1777821932 | 25.56° C | 51% | 1023.2 hPa | - | - | - | - |
| 1777821632 | 25.56° C | 54% | 1023.4 hPa | - | - | - | - |
| 1777821332 | 25° C | 56% | 1023.4 hPa | - | - | - | - |
| 1777821032 | 24.44° C | 56% | 1023.4 hPa | - | - | - | - |
| 1777820732 | 24.44° C | 57% | 1023.5 hPa | - | - | - | - |
| 1777820432 | 24.44° C | 53% | 1023.5 hPa | - | - | - | - |
| 1777820132 | 24.44° C | 51% | 1023.6 hPa | - | - | - | - |
| 1777819832 | 24.44° C | 50% | 1023.7 hPa | - | - | - | - |
| 1777819532 | 24.44° C | 58% | 1023.8 hPa | - | - | - | - |
| 1777819232 | 24.44° C | 58% | 1023.9 hPa | - | - | - | - |
| 1777818932 | 24.44° C | 57% | 1024.1 hPa | - | - | - | - |
| 1777818632 | 24.44° C | 54% | 1024.1 hPa | - | - | - | - |
| 1777818332 | 25° C | 54% | 1024.2 hPa | - | - | - | - |
| 1777818032 | 25° C | 55% | 1024.3 hPa | - | - | - | - |
| 1777817732 | 25° C | 58% | 1024.4 hPa | - | - | - | - |
| 1777817432 | 25° C | 56% | 1024.3 hPa | - | - | - | - |
| 1777817132 | 25° C | 58% | 1024.5 hPa | - | - | - | - |
| 1777816832 | 25.56° C | 58% | 1024.5 hPa | - | - | - | - |
* Rain since midnight (hover to see other rain measurements)
** Current wind speed in m/s (hover to see current wind gust speed)